Location: Slanting_Bridge
(35.6330°N, 80.9830°W)
Time: 16:53:44
(UTC-05:00)

Amateur Radio Satellites - All Passes

Search period start: 25 November 2014 16:23
Search period end: 26 November 2014 16:23
Location: Slanting_Bridge, 35.6330°N, 80.9830°W

Satellite Date Start Highest point End Downlink Frequencies (MHz)
Time Altitude Azimuth
VERMONT LUNAR 25 Nov 16:27:48 16:31:16 42° 351° (N) 16:34:44 437.305
RS-15 25 Nov 16:48:20 16:59:20 79° 300° (WNW) 17:10:19 29.354- 29.394
Cubesat XI-IV 25 Nov 16:52:05 16:55:58 21° 66° (ENE) 16:59:51 437.490
O/OREOS (USA 219) 25 Nov 16:58:49 17:02:57 37° 255° (WSW) 17:07:04 437.305
JAS-2 25 Nov 17:26:33 17:33:55 59° 260° (W) 17:41:42 435.910
CUTE-I 25 Nov 17:32:08 17:37:16 49° 72° (ENE) 17:42:25 437.470
PRISM 25 Nov 17:43:24 17:46:36 21° 95° (E) 17:49:46 437.425
PHONESAT 2.4 25 Nov 17:53:18 17:56:48 37° 2° (N) 18:00:17 2401.200-2431.200
MOZHAYETS 4 25 Nov 17:55:49 18:00:14 43° 287° (WNW) 18:04:37
GONETS M04 25 Nov 17:58:34 18:02:47 14° 64° (ENE) 18:06:57
CUBESAT XI-V 25 Nov 18:00:45 18:02:38 12° 91° (E) 18:04:29 437.345
VERMONT LUNAR 25 Nov 18:06:43 18:10:10 40° 8° (N) 18:13:37 437.305
STRAND 1 25 Nov 18:18:04 18:21:43 20° 94° (E) 18:25:21 437.568
Cubesat XI-IV 25 Nov 18:30:35 18:35:42 45° 261° (W) 18:40:50 437.490
RS-15 25 Nov 19:05:37 19:13:44 23° 326° (NW) 19:21:57 29.354- 29.394
BEESAT 2 25 Nov 19:08:56 19:10:03 11° 107° (ESE) 19:11:09 435.950
HO-68 25 Nov 19:12:37 19:17:58 23° 61° (ENE) 19:23:20 435.675
CUTE-I 25 Nov 19:13:58 19:17:33 18° 266° (W) 19:21:08 437.470
PRISM 25 Nov 19:18:31 19:22:07 27° 290° (WNW) 19:25:40 437.425
PCSat 25 Nov 19:21:03 19:26:10 45° 111° (ESE) 19:31:19 145.827
CUTE 1.7 & AOD 2 25 Nov 19:25:53 19:26:52 11° 65° (ENE) 19:27:52 437.475
BRITE-PL 25 Nov 19:27:55 19:30:36 15° 68° (ENE) 19:33:10 437.365/2234.400
PHONESAT 2.4 25 Nov 19:32:12 19:35:55 70° 19° (NNE) 19:39:37 2401.200-2431.200
CUBESAT XI-V 25 Nov 19:35:49 19:40:22 54° 286° (WNW) 19:44:52 437.345
AIST 2 25 Nov 19:40:48 19:42:35 12° 107° (ESE) 19:44:22 435.215
VERMONT LUNAR 25 Nov 19:45:12 19:48:50 76° 204° (SSW) 19:52:27 437.305
GONETS M04 25 Nov 19:52:07 20:01:00 81° 83° (E) 20:09:46
STRAND 1 25 Nov 19:56:16 20:01:02 41° 289° (WNW) 20:05:46 437.568
SEEDS 25 Nov 19:56:58 20:00:11 22° 70° (ENE) 20:03:25 437.485
DOVE 4 25 Nov 19:59:09 20:01:46 15° 68° (ENE) 20:04:19 437.250
AAUSAT CUBESAT 2 25 Nov 20:14:21 20:17:46 25° 71° (ENE) 20:21:13 437.432
AIST 1 25 Nov 20:16:42 20:21:00 56° 279° (W) 20:25:22
DX 1 25 Nov 20:23:10 20:25:53 16° 67° (ENE) 20:28:35 434.975-435.025
DELFI C3 25 Nov 20:23:14 20:25:04 13° 67° (ENE) 20:26:56 145.870
CANX-2 25 Nov 20:23:25 20:27:33 59° 75° (ENE) 20:31:43 2200.000
BEESAT 3 25 Nov 20:28:34 20:32:38 72° 300° (WNW) 20:36:47 437.485
COMPASS 1 25 Nov 20:28:47 20:32:44 43° 74° (ENE) 20:36:42 437.405
CINEMA 3 25 Nov 20:36:53 20:40:20 23° 70° (ENE) 20:43:40 145.822/145.860
GOMX 1 25 Nov 20:37:06 20:41:52 56° 75° (ENE) 20:46:19 467.674
BEESAT 2 25 Nov 20:43:47 20:47:48 54° 302° (WNW) 20:51:54 435.950
ZACube-1 25 Nov 20:51:48 20:54:04 14° 67° (ENE) 20:56:20 437.345
VELOX 1 25 Nov 20:53:50 20:54:17 10° 64° (ENE) 20:54:44 145.980
HO-68 25 Nov 20:57:59 21:05:04 63° 257° (WSW) 21:12:13 435.675
CUTE 1.7 & AOD 2 25 Nov 20:58:09 21:02:17 56° 260° (W) 21:06:26 437.475
BRITE-PL 25 Nov 21:03:43 21:08:44 54° 260° (W) 21:13:24 437.365/2234.400
PCSat 25 Nov 21:05:30 21:09:45 23° 307° (NW) 21:14:03 145.827
PHONESAT 2.4 25 Nov 21:11:22 21:14:31 26° 213° (SSW) 21:17:40 2401.200-2431.200
AIST 2 25 Nov 21:16:37 21:20:43 50° 302° (WNW) 21:24:54 435.215
AISAT 25 Nov 21:16:50 21:20:05 20° 68° (ENE) 21:23:19 437.250
UKube-1 25 Nov 21:22:07 21:26:27 76° 76° (ENE) 21:30:49 .
VERMONT LUNAR 25 Nov 21:24:53 21:26:54 14° 218° (SW) 21:28:55 437.305
FUNcube-1 25 Nov 21:25:11 21:29:01 34° 73° (ENE) 21:32:48 145.935
RS-15 25 Nov 21:28:24 21:32:22 12° 3° (N) 21:36:22 29.354- 29.394
SEEDS 25 Nov 21:32:24 21:35:52 25° 264° (W) 21:39:22 437.485
Oscar 11 25 Nov 21:33:46 21:38:02 71° 259° (WSW) 21:42:21 145.826/435.025
DOVE 4 25 Nov 21:34:44 21:39:14 44° 261° (W) 21:43:29 437.250
CUBEBUG 2 25 Nov 21:49:10 21:53:28 83° 258° (WSW) 21:57:41 437.445
UWE-3 25 Nov 21:50:03 21:54:19 86° 77° (ENE) 21:58:31 435.000/436.395/437.385
AAUSAT CUBESAT 2 25 Nov 21:50:14 21:53:24 21° 265° (W) 21:56:35 437.432
GONETS M04 25 Nov 21:51:23 21:56:38 18° 281° (W) 22:01:52
DELFI C3 25 Nov 21:56:07 21:59:58 42° 261° (W) 22:03:52 145.870
DX 1 25 Nov 21:57:40 22:01:46 39° 261° (W) 22:05:54 434.975-435.025
50 SAT 25 Nov 22:02:16 22:06:08 46° 74° (ENE) 22:10:00 437.505
COMPASS 1 25 Nov 22:06:57 22:08:40 12° 268° (W) 22:10:23 437.405
HUMSAT D 25 Nov 22:11:13 22:15:21 76° 77° (ENE) 22:19:29 437.325/437.525
CINEMA 3 25 Nov 22:13:41 22:17:25 26° 263° (W) 22:21:02 145.822/145.860
ANTELSAT 25 Nov 22:14:18 22:17:43 21° 96° (E) 22:21:11 437.575/2403.000
GOMX 1 25 Nov 22:18:15 22:20:10 12° 267° (W) 22:22:03 467.674
ESTCUBE 1 25 Nov 22:23:39 22:27:51 39° 72° (ENE) 22:32:05 437.505/2401.250
VELOX 1 25 Nov 22:25:48 22:30:16 68° 258° (WSW) 22:34:44 145.980
ZACube-1 25 Nov 22:26:08 22:30:07 40° 261° (W) 22:34:03 437.345
POLYITAN 1 25 Nov 22:35:11 22:38:35 23° 96° (E) 22:41:58 437.675
QB50P2 25 Nov 22:37:15 22:40:44 25° 96° (E) 22:44:13 145.880/145.840
DUCHIFAT 1 25 Nov 22:43:21 22:47:00 28° 97° (E) 22:50:38 145.980
CUSAT 1 25 Nov 22:47:26 22:48:55 11° 75° (ENE) 22:50:30 437.405
TISAT 1 25 Nov 22:47:44 22:50:22 16° 67° (ENE) 22:53:00 437.305
AISAT 25 Nov 22:52:26 22:56:28 33° 262° (W) 23:00:31 437.250
SPROUT 25 Nov 22:56:27 22:59:20 18° 68° (ENE) 23:02:13 437.525
NANOSAT C BR1 25 Nov 23:02:22 23:06:28 49° 100° (E) 23:10:33 145.865
FUNcube-1 25 Nov 23:02:54 23:05:27 16° 266° (W) 23:08:00 145.935
CUBEBUG 1 25 Nov 23:05:45 23:10:11 71° 258° (WSW) 23:14:38 437.445
TIGRISAT 25 Nov 23:07:52 23:12:19 87° 103° (ESE) 23:16:52 435.000
DANDE 25 Nov 23:10:33 23:13:33 16° 77° (ENE) 23:17:03 436.750
JUGNU 25 Nov 23:11:39 23:13:28 11° 167° (SSE) 23:15:18 437.505
QB50P1 25 Nov 23:12:09 23:16:22 66° 101° (ESE) 23:20:32 145.935-145.965
UNISAT 6 25 Nov 23:21:26 23:25:51 64° 285° (WNW) 23:30:21 437.425
BUGSAT 1 25 Nov 23:24:11 23:28:16 76° 102° (ESE) 23:32:17 437.445
ISS 25 Nov 23:30:41 23:33:57 75° 319° (NW) 23:37:14 145.825
POPSAT HIP 1 25 Nov 23:36:58 23:41:08 60° 285° (WNW) 23:45:17 437.405
SWISSCUBE 25 Nov 23:40:41 23:41:37 11° 63° (ENE) 23:42:34 437.505
50 SAT 25 Nov 23:40:44 23:41:40 11° 268° (W) 23:42:35 437.505
RS-15 25 Nov 23:41:27 23:50:34 27° 39° (NE) 23:59:55 29.354- 29.394
ANTELSAT 25 Nov 23:50:36 23:54:30 30° 289° (WNW) 23:58:28 437.575/2403.000
ESTCUBE 1 26 Nov 00:01:56 00:04:51 17° 266° (W) 00:07:47 437.505/2401.250
BEESAT 26 Nov 00:08:59 00:12:27 20° 67° (ENE) 00:15:56 436.000
POLYITAN 1 26 Nov 00:11:02 00:14:26 24° 290° (WNW) 00:17:50 437.675
QB50P2 26 Nov 00:13:13 00:16:32 23° 290° (WNW) 00:19:51 145.880/145.840
DUCHIFAT 1 26 Nov 00:19:37 00:22:40 20° 291° (WNW) 00:25:44 145.980
TISAT 1 26 Nov 00:21:56 00:25:53 37° 262° (W) 00:29:51 437.305
AUBIESAT-1 26 Nov 00:22:16 00:26:05 47° 68° (ENE) 00:30:17 437.475
CUSAT 1 26 Nov 00:27:04 00:31:57 76° 263° (W) 00:38:33 437.405
M-CUBED/EXP-1 PRIME 26 Nov 00:27:17 00:31:10 60° 70° (ENE) 00:35:28 437.505
SPROUT 26 Nov 00:31:12 00:35:09 34° 262° (W) 00:39:06 437.525
NANOSAT C BR1 26 Nov 00:40:15 00:41:54 12° 294° (WNW) 00:43:32 145.865
DANDE 26 Nov 00:52:15 00:56:53 51° 263° (W) 01:03:05 436.750
JUGNU 26 Nov 00:58:06 01:01:43 17° 177° (S) 01:05:20 437.505
MaSat-1 26 Nov 01:02:45 01:05:05 65° 67° (ENE) 01:07:30 437.345
ITUPSAT 1 26 Nov 01:02:59 01:07:47 75° 75° (ENE) 01:12:36 437.325
YUBILEINY 26 Nov 01:07:22 01:11:56 15° 78° (ENE) 01:16:29 435.215
SRMSAT 26 Nov 01:09:14 01:12:05 14° 170° (S) 01:14:57 437.500
ISS 26 Nov 01:09:48 01:11:05 12° 336° (NNW) 01:12:21 145.825
SWISSCUBE 26 Nov 01:14:01 01:18:48 75° 258° (WSW) 01:23:38 437.505
STARS 26 Nov 01:34:43 01:37:59 21° 68° (ENE) 01:41:15 437.465
Oscar 19 26 Nov 01:39:03 01:44:06 53° 100° (E) 01:49:08 437.125/150
BEESAT 26 Nov 01:45:36 01:50:01 37° 262° (W) 01:54:28 436.000
RS-15 26 Nov 01:53:08 02:04:29 89° 242° (WSW) 02:16:21 29.354- 29.394
AUBIESAT-1 26 Nov 01:59:54 02:01:27 12° 265° (W) 02:03:02 437.475
KKS-1 26 Nov 02:13:43 02:18:10 89° 77° (ENE) 02:22:38 437.445
ITAMSAT 1 26 Nov 02:31:50 02:36:59 65° 102° (ESE) 02:42:05 435.822/435.867
SO-50 26 Nov 02:37:53 02:40:24 15° 108° (ESE) 02:42:59 436.795
JUGNU 26 Nov 02:46:40 02:49:59 15° 187° (S) 02:53:19 437.505
SRMSAT 26 Nov 02:56:45 03:00:31 17° 180° (S) 03:04:17 437.500
YUBILEINY 26 Nov 02:58:36 03:07:25 89° 276° (W) 03:16:16 435.215
Gurwin Techsat 1B 26 Nov 03:03:24 03:08:44 75° 102° (ESE) 03:14:01 435.225
STARS 26 Nov 03:10:23 03:14:15 30° 263° (W) 03:18:08 437.465
Oscar 19 26 Nov 03:19:46 03:22:58 17° 295° (WNW) 03:26:10 437.125/150
MOZHAYETS 4 26 Nov 03:21:19 03:22:32 11° 64° (ENE) 03:23:45
HORYU 2 26 Nov 03:25:05 03:29:29 53° 100° (E) 03:33:53 437.375
RS-15 26 Nov 04:08:10 04:15:23 19° 260° (W) 04:22:49 29.354- 29.394
PCSat 26 Nov 04:12:28 04:16:33 21° 52° (NE) 04:20:36 145.827
ITAMSAT 1 26 Nov 04:13:18 04:15:52 14° 297° (WNW) 04:18:26 435.822/435.867
SO-50 26 Nov 04:16:08 04:20:28 48° 304° (WNW) 04:24:58 436.795
AO-7 26 Nov 04:22:22 04:30:35 57° 103° (ESE) 04:38:44 29.400- 29.500
PRISM 26 Nov 04:33:34 04:34:57 11° 65° (ENE) 04:36:20 437.425
JAS-2 26 Nov 04:41:41 04:47:13 26° 92° (E) 04:52:13 435.910
Gurwin Techsat 1B 26 Nov 04:45:51 04:48:00 13° 298° (WNW) 04:50:09 435.225
SRMSAT 26 Nov 04:46:02 04:48:57 14° 190° (S) 04:51:52 437.500
BEESAT 3 26 Nov 04:51:39 04:55:18 28° 54° (NE) 04:58:54 437.485
MOZHAYETS 4 26 Nov 04:54:36 04:59:08 66° 259° (W) 05:03:45
YUBILEINY 26 Nov 05:00:29 05:05:24 16° 295° (WNW) 05:10:22 435.215
HORYU 2 26 Nov 05:03:38 05:05:41 13° 295° (WNW) 05:07:44 437.375
BEESAT 2 26 Nov 05:06:55 05:10:50 36° 56° (NE) 05:14:41 435.950
O/OREOS (USA 219) 26 Nov 05:28:59 05:33:00 33° 104° (ESE) 05:37:01 437.305
STRAND 1 26 Nov 05:31:16 05:35:10 22° 67° (ENE) 05:39:04 437.568
AIST 2 26 Nov 05:41:26 05:45:32 42° 56° (ENE) 05:49:34 435.215
CUTE-I 26 Nov 05:52:55 05:57:12 24° 96° (E) 06:01:27 437.470
PCSat 26 Nov 05:55:00 06:00:14 51° 248° (WSW) 06:05:26 145.827
ISS 26 Nov 06:01:41 06:04:43 33° 36° (NE) 06:07:45 145.825
PRISM 26 Nov 06:05:54 06:09:59 53° 259° (W) 06:14:08 437.425
AO-7 26 Nov 06:15:55 06:22:52 31° 300° (WNW) 06:29:48 29.400- 29.500
JAS-2 26 Nov 06:25:54 06:32:32 46° 291° (WNW) 06:38:24 435.910
AIST 1 26 Nov 06:27:39 06:31:19 26° 77° (ENE) 06:34:56
BEESAT 3 26 Nov 06:30:06 06:33:22 22° 249° (WSW) 06:36:35 437.485
CUBESAT XI-V 26 Nov 06:35:59 06:40:42 80° 258° (WSW) 06:45:27 437.345
BEESAT 2 26 Nov 06:46:05 06:48:48 17° 251° (WSW) 06:51:30 435.950
Cubesat XI-IV 26 Nov 06:50:41 06:56:02 87° 284° (WNW) 07:01:20 437.490
GONETS M04 26 Nov 06:56:38 07:01:56 18° 79° (E) 07:07:15
O/OREOS (USA 219) 26 Nov 07:09:09 07:12:27 20° 299° (WNW) 07:15:44 437.305
STRAND 1 26 Nov 07:09:18 07:14:04 38° 261° (W) 07:18:52 437.568
AIST 2 26 Nov 07:21:17 07:23:47 15° 252° (WSW) 07:26:15 435.215
CUTE-I 26 Nov 07:32:29 07:37:17 36° 290° (WNW) 07:42:04 437.470
ISS 26 Nov 07:38:43 07:41:11 20° 231° (SW) 07:43:39 145.825
AIST 1 26 Nov 08:05:31 08:08:48 21° 272° (W) 08:12:03
CANX-2 26 Nov 08:13:47 08:15:49 13° 92° (E) 08:17:51 2200.000
HO-68 26 Nov 08:29:30 08:35:38 30° 97° (E) 08:41:43 435.675
GOMX 1 26 Nov 08:42:54 08:45:43 17° 95° (E) 08:48:35 467.674
CUTE 1.7 & AOD 2 26 Nov 08:46:55 08:50:42 30° 97° (E) 08:54:28 437.475
GONETS M04 26 Nov 08:48:47 08:57:35 81° 277° (W) 09:06:29
BRITE-PL 26 Nov 09:11:34 09:15:38 56° 100° (E) 09:19:48 437.365/2234.400
ANTELSAT 26 Nov 09:12:36 09:14:37 13° 66° (ENE) 09:16:38 437.575/2403.000
UKube-1 26 Nov 09:14:26 09:17:06 16° 94° (E) 09:19:45 .
SEEDS 26 Nov 09:19:18 09:23:34 64° 101° (E) 09:27:48 437.485
Oscar 11 26 Nov 09:24:42 09:28:20 25° 96° (E) 09:31:57 145.826/435.025
POLYITAN 1 26 Nov 09:27:25 09:29:30 14° 66° (ENE) 09:31:35 437.675
QB50P2 26 Nov 09:29:09 09:31:24 14° 67° (ENE) 09:33:39 145.880/145.840
DUCHIFAT 1 26 Nov 09:34:38 09:37:14 16° 67° (ENE) 09:39:51 145.980
AAUSAT CUBESAT 2 26 Nov 09:35:41 09:39:55 75° 102° (ESE) 09:44:09 437.432
DOVE 4 26 Nov 09:36:35 09:40:43 57° 101° (E) 09:44:59 437.250
DELFI C3 26 Nov 09:40:04 09:43:47 32° 97° (E) 09:47:29 145.870
UWE-3 26 Nov 09:43:46 09:47:01 21° 96° (E) 09:50:18 435.000/436.395/437.385
CUBEBUG 2 26 Nov 09:43:49 09:47:19 24° 96° (E) 09:50:53 437.445
CANX-2 26 Nov 09:47:52 09:51:57 44° 286° (WNW) 09:56:01 2200.000
DX 1 26 Nov 09:49:01 09:53:09 42° 99° (E) 09:57:15 434.975-435.025
COMPASS 1 26 Nov 09:51:12 09:55:24 61° 285° (WNW) 09:59:36 437.405
NANOSAT C BR1 26 Nov 09:53:01 09:56:34 26° 71° (ENE) 10:00:06 145.865
HUMSAT D 26 Nov 10:00:12 10:02:43 15° 94° (E) 10:05:15 437.325/437.525
QB50P1 26 Nov 10:02:37 10:06:27 34° 72° (ENE) 10:10:18 145.935-145.965
TIGRISAT 26 Nov 10:04:14 10:08:22 52° 74° (ENE) 10:12:30 435.000
CINEMA 3 26 Nov 10:10:35 10:14:50 86° 102° (ESE) 10:19:14 145.822/145.860
BUGSAT 1 26 Nov 10:11:44 10:15:37 36° 72° (ENE) 10:19:30 437.445
HO-68 26 Nov 10:16:41 10:23:26 46° 292° (WNW) 10:30:08 435.675
ZACube-1 26 Nov 10:17:36 10:21:41 44° 99° (E) 10:25:50 437.345
UNISAT 6 26 Nov 10:17:54 10:22:10 79° 76° (ENE) 10:26:26 437.425
GOMX 1 26 Nov 10:20:14 10:23:54 30° 288° (WNW) 10:27:39 467.674
VELOX 1 26 Nov 10:20:16 10:24:04 28° 97° (E) 10:27:50 145.980
CUTE 1.7 & AOD 2 26 Nov 10:23:18 10:26:24 20° 291° (WNW) 10:29:31 437.475
POPSAT HIP 1 26 Nov 10:27:00 10:31:14 68° 75° (ENE) 10:35:28 437.405
AISAT 26 Nov 10:46:16 10:50:38 58° 101° (E) 10:54:58 437.250
ANTELSAT 26 Nov 10:46:55 10:51:01 45° 261° (W) 10:55:07 437.575/2403.000
UKube-1 26 Nov 10:49:23 10:53:22 37° 288° (WNW) 10:57:20 .
GONETS M04 26 Nov 10:51:39 10:55:49 14° 296° (WNW) 11:00:01
FUNcube-1 26 Nov 10:52:28 10:56:42 69° 284° (WNW) 11:01:00 145.935
CUBEBUG 1 26 Nov 10:58:35 11:02:14 26° 96° (E) 11:05:51 437.445
Oscar 11 26 Nov 11:00:55 11:04:22 24° 290° (WNW) 11:07:50 145.826/435.025
POLYITAN 1 26 Nov 11:00:57 11:05:03 45° 261° (W) 11:09:08 437.675
QB50P2 26 Nov 11:02:53 11:06:56 42° 261° (W) 11:11:00 145.880/145.840
DUCHIFAT 1 26 Nov 11:08:51 11:12:47 37° 262° (W) 11:16:44 145.980
DELFI C3 26 Nov 11:16:05 11:18:49 17° 292° (WNW) 11:21:34 145.870
DOVE 4 26 Nov 11:17:31 11:18:02 10° 294° (WNW) 11:18:34 437.250
UWE-3 26 Nov 11:19:54 11:23:31 28° 289° (WNW) 11:27:12 435.000/436.395/437.385
CUBEBUG 2 26 Nov 11:20:30 11:23:55 24° 289° (WNW) 11:27:24 437.445
50 SAT 26 Nov 11:21:13 11:25:15 62° 285° (WNW) 11:29:17 437.505
DX 1 26 Nov 11:26:34 11:29:01 15° 294° (WNW) 11:31:27 434.975-435.025
NANOSAT C BR1 26 Nov 11:29:05 11:32:23 22° 264° (W) 11:35:41 145.865
HUMSAT D 26 Nov 11:34:48 11:38:37 35° 287° (WNW) 11:42:28 437.325/437.525
QB50P1 26 Nov 11:39:40 11:42:25 17° 266° (W) 11:45:10 145.935-145.965
TIGRISAT 26 Nov 11:44:33 11:45:24 11° 268° (W) 11:46:15 435.000
BUGSAT 1 26 Nov 11:48:34 11:51:12 16° 266° (W) 11:53:50 437.445
ZACube-1 26 Nov 11:55:33 11:57:41 14° 293° (WNW) 11:59:50 437.345
ESTCUBE 1 26 Nov 11:56:03 12:00:32 62° 285° (WNW) 12:04:59 437.505/2401.250
VELOX 1 26 Nov 11:57:04 12:00:29 22° 291° (WNW) 12:03:53 145.980
TISAT 1 26 Nov 12:09:56 12:13:56 41° 99° (E) 12:17:53 437.305
SPROUT 26 Nov 12:20:46 12:24:55 49° 100° (E) 12:29:03 437.525
AISAT 26 Nov 12:25:19 12:26:44 11° 296° (WNW) 12:28:08 437.250
DANDE 26 Nov 12:25:54 12:26:43 11° 94° (E) 12:27:30 436.750
CUBEBUG 1 26 Nov 12:35:03 12:38:28 23° 291° (WNW) 12:41:52 437.445
SO-50 26 Nov 12:50:07 12:55:00 67° 59° (ENE) 12:59:52 436.795
Oscar 19 26 Nov 12:53:02 12:58:00 56° 73° (ENE) 13:03:01 437.125/150
ITUPSAT 1 26 Nov 13:07:30 13:11:24 24° 96° (E) 13:15:17 437.325
YUBILEINY 26 Nov 13:12:59 13:21:01 39° 75° (ENE) 13:28:57 435.215
SWISSCUBE 26 Nov 13:17:54 13:22:18 35° 98° (E) 13:26:39 437.505
AO-7 26 Nov 13:33:09 13:34:57 11° 48° (NE) 13:36:46 29.400- 29.500
CUSAT 1 26 Nov 13:39:49 13:42:06 23° 282° (WNW) 13:44:15 437.405
AUBIESAT-1 26 Nov 13:42:16 13:47:11 70° 106° (ESE) 13:51:54 437.475
ITAMSAT 1 26 Nov 13:46:48 13:51:59 73° 75° (ENE) 13:57:12 435.822/435.867
TISAT 1 26 Nov 13:47:09 13:49:23 14° 293° (WNW) 13:51:37 437.305
M-CUBED/EXP-1 PRIME 26 Nov 13:47:47 13:52:45 87° 107° (ESE) 13:57:32 437.505
BEESAT 26 Nov 13:48:35 13:53:23 72° 102° (ESE) 13:58:08 436.000
SPROUT 26 Nov 13:58:45 14:00:33 13° 294° (WNW) 14:02:21 437.525
PHONESAT 2.4 26 Nov 14:02:47 14:06:09 34° 149° (SSE) 14:09:33 2401.200-2431.200
RS-15 26 Nov 14:07:16 14:12:48 15° 99° (E) 14:18:16 29.354- 29.394
KKS-1 26 Nov 14:08:51 14:12:16 22° 95° (E) 14:15:40 437.445
DANDE 26 Nov 14:08:59 14:10:02 12° 283° (WNW) 14:11:04 436.750
VERMONT LUNAR 26 Nov 14:11:52 14:15:25 57° 153° (SSE) 14:18:58 437.305
HORYU 2 26 Nov 14:21:09 14:25:07 34° 71° (ENE) 14:29:07 437.375
Gurwin Techsat 1B 26 Nov 14:21:30 14:26:49 87° 76° (ENE) 14:32:09 435.225
MaSat-1 26 Nov 14:28:29 14:30:58 22° 109° (ESE) 14:33:17 437.345
SO-50 26 Nov 14:33:00 14:34:58 12° 253° (WSW) 14:36:56 436.795
Oscar 19 26 Nov 14:35:01 14:37:39 14° 268° (W) 14:40:18 437.125/150
ITUPSAT 1 26 Nov 14:45:06 14:49:15 30° 290° (WNW) 14:53:22 437.325
JAS-2 26 Nov 14:53:53 14:55:42 11° 54° (NE) 14:57:31 435.910
SWISSCUBE 26 Nov 14:56:20 14:59:54 21° 293° (WNW) 15:03:26 437.505
STARS 26 Nov 15:02:53 15:07:14 61° 101° (E) 15:11:34 437.465
YUBILEINY 26 Nov 15:09:50 15:17:41 40° 273° (W) 15:25:30 435.215
AO-7 26 Nov 15:17:55 15:25:58 59° 68° (ENE) 15:34:05 29.400- 29.500
AUBIESAT-1 26 Nov 15:19:13 15:21:31 13° 301° (WNW) 15:23:47 437.475
M-CUBED/EXP-1 PRIME 26 Nov 15:25:49 15:27:00 11° 303° (WNW) 15:28:11 437.505
BEESAT 26 Nov 15:29:17 15:30:34 11° 297° (WNW) 15:31:51 436.000
ITAMSAT 1 26 Nov 15:30:32 15:31:56 11° 269° (W) 15:33:20 435.822/435.867
PHONESAT 2.4 26 Nov 15:41:11 15:44:51 59° 344° (NNW) 15:48:32 2401.200-2431.200
O/OREOS (USA 219) 26 Nov 15:41:30 15:45:43 39° 66° (ENE) 15:49:54 437.305
KKS-1 26 Nov 15:45:04 15:48:52 29° 290° (WNW) 15:52:41 437.445
VERMONT LUNAR 26 Nov 15:50:29 15:53:58 44° 349° (N) 15:57:28 437.305
HORYU 2 26 Nov 15:58:49 16:01:51 18° 265° (W) 16:04:54 437.375
MaSat-1 26 Nov 16:04:33 16:05:26 11° 300° (WNW) 16:06:18 437.345
